Location: Il Ritiro
(43.4167°N, 13.1333°E)
Time: 08:12:47
(UTC+00:00)

DELTA 2 R/B (1) - Pass Details

Date: 05 July 2020
Orbit: 791 x 802 km, 39.6° (Epoch: 05 August)

Event Time Altitude Azimuth Distance (km) Brightness Sun altitude
Rises 22:22:26 0° 255° (WSW) 3,288 6.8 -22.9°
Reaches altitude 10° 22:24:57 10° 252° (WSW) 2,361 6.0 -23.0°
Enters shadow 22:29:55 55° 197° (SSW) 950 3.6 -23.2°
Exits shadow 22:36:20 - 96° (E) 2,534 6.0 -23.4°
Sets 22:38:24 0° 93° (E) 3,301 6.7 -23.5°
